Kodiak, AK

7:32 AM AKDT en Mayo 20, 2018 (GMT -0800)
Kodiak

Tiempo Historia de PADQ - Febrero, 2018

Change the Weather History Date:

Miércoles, Febrero 14, 2018

  Actual Average Record
Temperature  
Temperatura media 33 ° F 31 ° F  
Temperatura máxima 40 ° F 35 ° F 57 ° F (1927)
Temperatura mínima 26 ° F 26 ° F 0 ° F (1985)
Degree Days  
Grados día de calefacción 32 34  
Month to date heating degree days 408 485  
Since 1 July heating degree days 4886 5399  
Cooling Degree Days 0 0  
Month to date cooling degree days 0 0  
Year to date cooling degree days 0 0  
Moisture  
Punto de rocío 26 ° F    
Average Humidity 75    
Maximum Humidity 85    
Minimum Humidity 64    
Precipitación  
Precipitación 0.00 pul 0.22 pul 1.38 pul (1991)
Month to date precipitation 4.10 3.25  
Year to date precipitation 10.37 11.54  
Nieve  
Nieve 0.00 pul 0.50 pul 8.50 pul (1957)
Month to date snowfall 0.3 7.5  
Since 1 July snowfall 11.9 41.8  
Since 1 September snowfall 11.9 41.8  
Grosos de nieve 0.00 pul    
Presión al nivel del mar  
Presión al nivel del mar 30.27 pul    
Viento  
Velocidad del viento 4 mph (Oeste)    
Velocidad máxima del viento 9 mph    
Max Gust Speed 10 mph    
Visibilidad 10 Millas    
Eventos      
T = Trace of Precipitation, MM = Missing Value Source: NWS Daily Summary

Daily Weather History Graph

Daily Weather History Graph

Search for Another Location

Airport or City:

Astronomía

Feb. 14, 2018 Salida Puesta
Hora real 8:42 AM AKST 6:07 PM AKST
Crepúsculo civil 8:01 AM AKST 6:48 PM AKST
Crepúsculo náutico 7:15 AM AKST 7:33 PM AKST
Crepúsculo astronómico 6:30 AM AKST 8:18 PM AKST
Luna 8:27 AM AKST (2/14) 5:02 PM AKST (2/14)
Horas de luz 10h 46m
Horas de luz
9h 24m
Creciente menguante, 1% of the Moon is Illuminated
Feb 14
Creciente menguante
Feb 15
Nueva
Feb 22
Cuarto creciente
Mar 1
Luna llena
Mar 9
Cuarto menguante

Hourly Weather History & Observations

Hora (AKST) Temp. Vientos helados Punto de rocío Humedad Presión Visibilidad Wind Dir Velocidad del viento Velocidad de ráfagas Precip Eventos Condiciones
12:53 AM 32.0 ° F 26.4 ° F 25.0 ° F 75% 30.33 pul 10.0 mi Oeste 5.8 mph - N/A   Despejado
1:53 AM 30.0 ° F 25.2 ° F 24.1 ° F 79% 30.31 pul 10.0 mi Oeste 4.6 mph - N/A   Despejado
2:53 AM 28.9 ° F 22.8 ° F 24.1 ° F 82% 30.31 pul 10.0 mi ONO 5.8 mph - N/A   Despejado
3:53 AM 32.0 ° F 27.5 ° F 25.0 ° F 75% 30.30 pul 10.0 mi Oeste 4.6 mph - N/A   Despejado
4:53 AM 33.1 ° F 28.7 ° F 25.0 ° F 72% 30.30 pul 10.0 mi OSO 4.6 mph - N/A   Despejado
5:53 AM 30.9 ° F 25.2 ° F 25.0 ° F 79% 30.29 pul 10.0 mi ONO 5.8 mph - N/A   Despejado
6:53 AM 30.0 ° F 23.2 ° F 25.0 ° F 82% 30.29 pul 10.0 mi Oeste 6.9 mph - N/A   Despejado
7:53 AM 30.0 ° F 25.2 ° F 26.1 ° F 85% 30.28 pul 10.0 mi Oeste 4.6 mph - N/A   Despejado
8:53 AM 27.0 ° F - 23.0 ° F 85% 30.28 pul 10.0 mi Sin viento Sin viento - N/A   Despejado
9:53 AM 30.0 ° F 25.2 ° F 26.1 ° F 85% 30.28 pul 10.0 mi NO 4.6 mph - N/A   Despejado
10:53 AM 32.0 ° F 28.7 ° F 26.1 ° F 79% 30.28 pul 10.0 mi ONO 3.5 mph - N/A   Despejado
11:53 AM 34.0 ° F 31.0 ° F 28.0 ° F 79% 30.27 pul 10.0 mi ONO 3.5 mph - N/A   Despejado
12:53 PM 37.0 ° F - 28.9 ° F 73% 30.28 pul 10.0 mi Sin viento Sin viento - N/A   Muy nublado
1:53 PM 39.9 ° F 37.8 ° F 28.0 ° F 63% 30.27 pul 10.0 mi SO 3.5 mph - N/A   Nublado
2:53 PM 39.9 ° F 36.7 ° F 27.0 ° F 60% 30.25 pul 10.0 mi SSO 4.6 mph - N/A   Muy nublado
3:53 PM 39.9 ° F 37.8 ° F 28.0 ° F 63% 30.25 pul 10.0 mi SE 3.5 mph - N/A   Muy nublado
4:53 PM 39.0 ° F 36.8 ° F 30.0 ° F 70% 30.24 pul 10.0 mi Norte 3.5 mph - N/A   Nubes dispersas
5:53 PM 37.0 ° F 34.5 ° F 28.0 ° F 70% 30.24 pul 10.0 mi NE 3.5 mph - N/A   Parcialmente nublado
6:53 PM 33.1 ° F - 26.1 ° F 75% 30.24 pul 10.0 mi Sin viento Sin viento - N/A   Despejado
7:53 PM 32.0 ° F 27.5 ° F 27.0 ° F 82% 30.25 pul 10.0 mi ONO 4.6 mph - N/A   Despejado
8:53 PM 30.9 ° F 25.2 ° F 27.0 ° F 85% 30.25 pul 10.0 mi ONO 5.8 mph - N/A   Despejado
9:53 PM 28.9 ° F 23.9 ° F 25.0 ° F 85% 30.24 pul 10.0 mi OSO 4.6 mph - N/A   Despejado
10:53 PM 27.0 ° F 21.6 ° F 24.1 ° F 89% 30.25 pul 10.0 mi Oeste 4.6 mph - N/A   Despejado
11:53 PM 27.0 ° F 20.5 ° F 23.0 ° F 85% 30.24 pul 10.0 mi ONO 5.8 mph - N/A   Despejado